Weather History for Salida, CO

Change the Weather History Date:

Monday, July 29, 2013

  Actual Average (KGUC) Record (KGUC)
Temperature  
Mean Temperature 68 °F -  
Max Temperature 81 °F 76 °F 84 °F (2001)
Min Temperature 54 °F 46 °F 37 °F (2002)
Cooling Degree Days 2    
Growing Degree Days 18 (Base 50)    
Moisture  
Dew Point 47 °F    
Average Humidity 52    
Maximum Humidity 89    
Minimum Humidity 22    
Precipitation  
Precipitation 0.00 in - - ()
Sea Level Pressure  
Sea Level Pressure 30.32 in    
Wind  
Wind Speed 8 mph (WSW)    
Max Wind Speed 31 mph    
Max Gust Speed 44 mph    
Visibility 10 miles    
Events      
Averages and records for this station are not official NWS values.
T = Trace of Precipitation, MM = Missing Value Source: NWS Daily Summary

Daily Weather History Graph

Daily Weather History Graph

Search for Another Location

Airport:

Trip Planner

Search our weather history database for the weather conditions in past years. The results will help you decide how hot, cold, wet, or windy it might be!

Date:

Astronomy

Jul. 29, 2013 Rise Set
Actual Time 6:03 AM MDT 8:17 PM MDT
Civil Twilight 5:33 AM MDT 8:46 PM MDT
Nautical Twilight 4:57 AM MDT 9:23 PM MDT
Astronomical Twilight 4:17 AM MDT 10:02 PM MDT
Moon No Moon Rise 1:41 PM MDT (7/29)
Length of Visible Light 15h 12m
Length of Day
14h 13m
Waning Gibbous, 50% of the Moon is Illuminated
Jul 29
Waning Gibbous
Aug 6
New
Aug 14
First Quarter
Aug 20
Full
Aug 28
Last Quarter

Hourly Weather History & Observations

Time (MDT) Temp. Dew Point Humidity Pressure Visibility Wind Dir Wind Speed Gust Speed Precip Events Conditions
12:15 AM 58.8 °F 52.3 °F 79% 30.28 in 10.0 mi Calm Calm - N/A   Clear
12:35 AM 58.5 °F 52.7 °F 81% 30.27 in 10.0 mi WSW 4.6 mph - N/A   Clear
12:55 AM 58.1 °F 53.1 °F 83% 30.27 in 10.0 mi West 3.5 mph - N/A   Clear
1:15 AM 58.1 °F 52.9 °F 83% 30.27 in 10.0 mi Calm Calm - N/A   Clear
1:55 AM 56.7 °F 52.5 °F 86% 30.27 in 10.0 mi Calm Calm - N/A   Clear
2:15 AM 56.5 °F 52.5 °F 87% 30.27 in 10.0 mi Calm Calm - N/A   Clear
2:35 AM 56.3 °F 53.1 °F 89% 30.27 in 10.0 mi Calm Calm - N/A   Mostly Cloudy
2:55 AM 57.7 °F 52.9 °F 84% 30.27 in 10.0 mi Calm Calm - N/A   Overcast
3:15 AM 57.6 °F 52.7 °F 84% 30.27 in 10.0 mi NW 4.6 mph - N/A   Mostly Cloudy
3:35 AM 57.4 °F 52.7 °F 84% 30.26 in 10.0 mi Calm Calm - N/A   Overcast
3:55 AM 57.6 °F 52.3 °F 83% 30.26 in 10.0 mi Calm Calm - N/A   Overcast
4:15 AM 58.5 °F 52.0 °F 79% 30.26 in 10.0 mi NNW 8.1 mph - N/A   Overcast
4:35 AM 58.6 °F 51.8 °F 78% 30.26 in 10.0 mi NNW 6.9 mph - N/A   Mostly Cloudy
4:55 AM 58.5 °F 51.8 °F 79% 30.26 in 10.0 mi NNW 5.8 mph - N/A   Overcast
5:15 AM 59.0 °F 51.4 °F 76% 30.26 in 10.0 mi NNW 8.1 mph - N/A   Overcast
5:35 AM 59.9 °F 50.2 °F 70% 30.27 in 10.0 mi NNW 9.2 mph - N/A   Overcast
5:55 AM 59.0 °F 50.2 °F 73% 30.27 in 10.0 mi NNW 8.1 mph - N/A   Mostly Cloudy
6:15 AM 58.6 °F 50.9 °F 75% 30.29 in 10.0 mi NNW 9.2 mph - N/A   Scattered Clouds
6:35 AM 58.6 °F 51.6 °F 77% 30.29 in 10.0 mi NW 3.5 mph - N/A   Overcast
6:55 AM 60.4 °F 50.9 °F 71% 30.29 in 10.0 mi West 3.5 mph - N/A   Overcast
7:15 AM 61.7 °F 50.4 °F 66% 30.30 in 10.0 mi WNW 5.8 mph - N/A   Mostly Cloudy
7:35 AM 60.8 °F 50.9 °F 70% 30.29 in 10.0 mi North 5.8 mph - N/A   Overcast
7:55 AM 64.4 °F 49.6 °F 59% 30.30 in 10.0 mi SW 13.8 mph 18.4 mph N/A   Overcast
8:15 AM 64.8 °F 49.1 °F 57% 30.30 in 10.0 mi SW 10.4 mph 19.6 mph N/A   Mostly Cloudy
8:35 AM 67.3 °F 48.9 °F 52% 30.30 in 10.0 mi SW 6.9 mph - N/A   Scattered Clouds
8:55 AM 68.5 °F 48.2 °F 48% 30.30 in 10.0 mi SW 11.5 mph 20.7 mph N/A   Clear
9:15 AM 70.2 °F 47.3 °F 44% 30.29 in 10.0 mi WSW 13.8 mph 18.4 mph N/A   Clear
9:35 AM 71.1 °F 46.8 °F 42% 30.29 in 10.0 mi SW 13.8 mph 18.4 mph N/A   Clear
9:55 AM 72.0 °F 46.8 °F 41% 30.30 in 10.0 mi SW 10.4 mph - N/A   Scattered Clouds
10:15 AM 74.1 °F 43.7 °F 34% 30.30 in 10.0 mi SW 17.3 mph 23.0 mph N/A   Scattered Clouds
10:35 AM 74.5 °F 44.2 °F 34% 30.30 in 10.0 mi WSW 15.0 mph 21.9 mph N/A   Clear
10:55 AM 74.8 °F 43.5 °F 33% 30.31 in 10.0 mi SW 18.4 mph 25.3 mph N/A   Scattered Clouds
11:15 AM 74.8 °F 42.4 °F 31% 30.31 in 10.0 mi WSW 19.6 mph 28.8 mph N/A   Scattered Clouds
11:35 AM 74.3 °F 43.0 °F 33% 30.32 in 10.0 mi WSW 20.7 mph 29.9 mph N/A   Mostly Cloudy
11:55 AM 75.2 °F 42.8 °F 31% 30.32 in 10.0 mi WSW 16.1 mph 26.5 mph N/A   Scattered Clouds
12:15 PM 75.2 °F 42.8 °F 31% 30.32 in 10.0 mi WSW 16.1 mph 24.2 mph N/A   Clear
12:35 PM 76.8 °F 40.8 °F 27% 30.32 in 10.0 mi West 15.0 mph 27.6 mph N/A   Scattered Clouds
12:55 PM 74.8 °F 42.6 °F 31% 30.33 in 10.0 mi West 16.1 mph 23.0 mph N/A   Mostly Cloudy
1:15 PM 75.9 °F 43.5 °F 31% 30.32 in 10.0 mi WSW 16.1 mph 24.2 mph N/A   Scattered Clouds
1:35 PM 78.1 °F 43.0 °F 29% 30.31 in 10.0 mi WSW 17.3 mph 23.0 mph N/A   Clear
1:55 PM 78.6 °F 42.4 °F 28% 30.31 in 10.0 mi West 19.6 mph 24.2 mph N/A   Clear
2:15 PM 79.0 °F 41.7 °F 26% 30.31 in 10.0 mi WSW 19.6 mph 26.5 mph N/A   Scattered Clouds
2:35 PM 80.4 °F 42.8 °F 26% 30.31 in 10.0 mi WSW 13.8 mph 25.3 mph N/A   Scattered Clouds
2:55 PM 75.7 °F 41.9 °F 30% 30.32 in 10.0 mi West 19.6 mph 33.4 mph N/A   Scattered Clouds
3:15 PM 79.9 °F 41.0 °F 25% 30.31 in 10.0 mi WSW 17.3 mph 29.9 mph N/A   Mostly Cloudy
3:35 PM 80.4 °F 40.3 °F 24% 30.31 in 10.0 mi WSW 19.6 mph 26.5 mph N/A   Scattered Clouds
3:55 PM 78.6 °F 40.5 °F 26% 30.30 in 10.0 mi WSW 12.7 mph 23.0 mph N/A   Clear
4:15 PM 79.7 °F 38.8 °F 23% 30.30 in 10.0 mi WSW 16.1 mph 21.9 mph N/A   Clear
4:35 PM 81.7 °F 39.2 °F 22% 30.30 in 10.0 mi WSW 16.1 mph 24.2 mph N/A   Clear
4:55 PM 80.4 °F 40.6 °F 24% 30.30 in 10.0 mi West 15.0 mph 20.7 mph N/A   Clear
5:15 PM 80.8 °F 39.7 °F 23% 30.31 in 10.0 mi West 16.1 mph 20.7 mph N/A   Clear
5:35 PM 79.3 °F 40.3 °F 25% 30.32 in 10.0 mi West 20.7 mph 27.6 mph N/A   Scattered Clouds
5:55 PM 77.0 °F 39.9 °F 26% 30.33 in 10.0 mi WSW 19.6 mph 25.3 mph N/A   Scattered Clouds
6:15 PM 75.4 °F 41.7 °F 30% 30.32 in 10.0 mi West 12.7 mph 17.3 mph N/A   Scattered Clouds
6:35 PM 74.5 °F 42.4 °F 32% 30.33 in 10.0 mi West 18.4 mph 25.3 mph N/A   Clear
6:55 PM 74.5 °F 43.2 °F 33% 30.33 in 10.0 mi WSW 13.8 mph 20.7 mph N/A   Clear
7:15 PM 75.2 °F 43.7 °F 32% 30.33 in 10.0 mi WSW 17.3 mph 21.9 mph N/A   Clear
7:35 PM 73.0 °F 44.1 °F 35% 30.33 in 10.0 mi WSW 12.7 mph 19.6 mph N/A   Clear
7:55 PM 71.8 °F 43.9 °F 37% 30.35 in 10.0 mi SW 13.8 mph - N/A   Clear
8:15 PM 72.0 °F 42.8 °F 35% 30.37 in 10.0 mi SSW 5.8 mph - N/A   Scattered Clouds
8:35 PM 70.9 °F 46.4 °F 42% 30.38 in 10.0 mi South 5.8 mph - N/A   Mostly Cloudy
8:55 PM 69.1 °F 47.5 °F 46% 30.38 in 10.0 mi SE 9.2 mph - N/A   Overcast
9:15 PM 68.7 °F 45.0 °F 42% 30.44 in 10.0 mi WSW 25.3 mph 32.2 mph N/A   Overcast
9:35 PM 61.9 °F 46.4 °F 57% 30.44 in 10.0 mi West 31.1 mph 43.7 mph N/A   Overcast
9:55 PM 57.4 °F 47.3 °F 69% 30.49 in 10.0 mi West 21.9 mph 36.8 mph N/A   Overcast
10:15 PM 56.5 °F 47.3 °F 71% 30.47 in 10.0 mi SSW 8.1 mph 11.5 mph N/A   Overcast
10:35 PM 58.1 °F 46.9 °F 66% 30.45 in 10.0 mi ENE 8.1 mph - N/A   Mostly Cloudy
10:55 PM 56.3 °F 49.1 °F 77% 30.46 in 10.0 mi Calm Calm - N/A   Scattered Clouds
11:15 PM 55.2 °F 49.8 °F 82% 30.46 in 10.0 mi SSE 4.6 mph - N/A   Clear
11:35 PM 54.3 °F 48.6 °F 81% 30.47 in 10.0 mi WNW 3.5 mph - N/A   Clear
11:55 PM 54.9 °F 49.1 °F 81% 30.47 in 10.0 mi Calm Calm - N/A   Clear